Time,TemperatureF,DewpointF,PressureIn,WindDirection,WindDirectionDegrees,WindSpeedMPH,WindSpeedGustMPH,Humidity,HourlyPrecipIn,Conditions,Clouds,dailyrainin,SoftwareType,DateUTC
2016-12-09 00:00:00,31.5,24.8,29.88,ESE,104,0.0,0.0,76,0.00,,,0.00,WeatherDisplay:WD_co,2016-12-09 08:00:00,
2016-12-09 00:10:00,31.6,26.5,29.89,SE,126,0.0,0.0,81,0.00,,,0.00,WeatherDisplay:WD_co,2016-12-09 08:10:00,
2016-12-09 00:15:00,31.5,27.8,29.89,ESE,102,0.0,4.0,86,0.00,,,0.00,WeatherDisplay:WD_co,2016-12-09 08:15:00,
2016-12-09 00:20:00,31.1,28.5,29.89,ESE,112,0.0,2.0,90,0.00,,,0.00,WeatherDisplay:WD_co,2016-12-09 08:20:00,
2016-12-09 00:25:00,30.9,29.1,29.89,SE,125,0.0,0.0,93,0.00,,,0.00,WeatherDisplay:WD_co,2016-12-09 08:25:00,
2016-12-09 00:30:00,30.9,29.4,29.89,SE,126,0.0,0.0,94,0.00,,,0.00,WeatherDisplay:WD_co,2016-12-09 08:30:00,
2016-12-09 00:40:00,31.1,29.6,29.90,ESE,121,0.0,0.0,94,0.00,,,0.00,WeatherDisplay:WD_co,2016-12-09 08:40:00,
2016-12-09 00:45:00,31.1,29.6,29.89,ESE,114,0.0,0.0,94,0.00,,,0.00,WeatherDisplay:WD_co,2016-12-09 08:45:00,
2016-12-09 00:50:00,31.1,29.0,29.89,ESE,102,0.0,0.0,92,0.00,,,0.00,WeatherDisplay:WD_co,2016-12-09 08:50:00,
2016-12-09 00:55:00,31.1,28.8,29.89,ESE,116,0.0,0.0,91,0.00,,,0.00,WeatherDisplay:WD_co,2016-12-09 08:55:00,
2016-12-09 01:00:00,31.3,28.4,29.90,SE,137,0.0,7.0,89,0.00,,,0.00,WeatherDisplay:WD_co,2016-12-09 09:00:00,
2016-12-09 01:05:00,31.1,28.8,29.90,ESE,117,0.0,0.0,91,0.00,,,0.00,WeatherDisplay:WD_co,2016-12-09 09:05:00,
2016-12-09 01:10:00,30.6,29.6,29.90,ESE,113,0.0,0.0,96,0.00,,,0.00,WeatherDisplay:WD_co,2016-12-09 09:10:00,
2016-12-09 01:15:00,30.0,29.8,29.90,SE,140,0.0,0.0,99,0.00,,,0.00,WeatherDisplay:WD_co,2016-12-09 09:15:00,
2016-12-09 01:20:00,29.8,29.6,29.90,ESE,111,0.0,0.0,99,0.00,,,0.00,WeatherDisplay:WD_co,2016-12-09 09:20:00,
2016-12-09 01:25:00,28.9,28.7,29.89,East,99,0.0,0.0,99,0.00,,,0.00,WeatherDisplay:WD_co,2016-12-09 09:25:00,
2016-12-09 01:30:00,28.9,28.7,29.89,ESE,121,0.0,0.0,99,0.00,,,0.00,WeatherDisplay:WD_co,2016-12-09 09:30:00,
2016-12-09 01:35:00,29.1,28.9,29.90,ESE,103,0.0,3.0,99,0.00,,,0.00,WeatherDisplay:WD_co,2016-12-09 09:35:00,
2016-12-09 01:40:00,29.1,28.9,29.90,ENE,65,0.0,4.0,99,0.00,,,0.00,WeatherDisplay:WD_co,2016-12-09 09:40:00,
2016-12-09 01:45:00,29.3,29.1,29.90,ESE,114,0.0,4.0,99,0.00,,,0.00,WeatherDisplay:WD_co,2016-12-09 09:45:00,
2016-12-09 01:50:00,29.5,29.2,29.90,ESE,110,0.0,0.0,99,0.00,,,0.00,WeatherDisplay:WD_co,2016-12-09 09:50:00,
2016-12-09 01:55:00,29.5,29.2,29.90,SE,135,0.0,0.0,99,0.00,,,0.00,WeatherDisplay:WD_co,2016-12-09 09:55:00,
2016-12-09 02:00:00,29.3,29.1,29.90,SE,137,0.0,0.0,99,0.00,,,0.00,WeatherDisplay:WD_co,2016-12-09 10:00:00,
2016-12-09 02:05:00,29.3,29.1,29.90,ESE,108,0.0,0.0,99,0.00,,,0.00,WeatherDisplay:WD_co,2016-12-09 10:05:00,
2016-12-09 02:10:00,29.1,28.9,29.90,ESE,102,0.0,0.0,99,0.00,,,0.00,WeatherDisplay:WD_co,2016-12-09 10:10:00,
2016-12-09 02:15:00,29.1,28.9,29.90,SE,131,0.0,0.0,99,0.00,,,0.00,WeatherDisplay:WD_co,2016-12-09 10:15:00,
2016-12-09 02:40:00,29.1,28.9,29.90,South,174,0.0,0.0,99,0.00,,,0.00,WeatherDisplay:WD_co,2016-12-09 10:40:00,
2016-12-09 02:45:00,29.1,28.9,29.90,South,180,0.0,0.0,99,0.00,,,0.00,WeatherDisplay:WD_co,2016-12-09 10:45:00,
2016-12-09 02:50:00,29.1,28.9,29.90,South,180,0.0,0.0,99,0.00,,,0.00,WeatherDisplay:WD_co,2016-12-09 10:50:00,
2016-12-09 02:55:00,29.1,28.9,29.90,South,180,0.0,0.0,99,0.00,,,0.00,WeatherDisplay:WD_co,2016-12-09 10:55:00,
2016-12-09 03:00:00,29.1,28.9,29.90,South,180,0.0,0.0,99,0.00,,,0.00,WeatherDisplay:WD_co,2016-12-09 11:00:00,
2016-12-09 03:05:00,29.1,28.9,29.90,South,180,0.0,0.0,99,0.00,,,0.00,WeatherDisplay:WD_co,2016-12-09 11:05:00,
2016-12-09 03:10:00,29.1,28.9,29.90,South,180,0.0,0.0,99,0.00,,,0.00,WeatherDisplay:WD_co,2016-12-09 11:10:00,
2016-12-09 03:15:00,29.1,28.9,29.90,South,180,0.0,0.0,99,0.00,,,0.00,WeatherDisplay:WD_co,2016-12-09 11:15:00,
2016-12-09 03:20:00,29.1,28.9,29.90,South,180,0.0,0.0,99,0.00,,,0.00,WeatherDisplay:WD_co,2016-12-09 11:20:00,
2016-12-09 03:25:00,28.8,28.5,29.91,South,171,0.0,0.0,99,0.00,,,0.00,WeatherDisplay:WD_co,2016-12-09 11:25:00,
2016-12-09 03:30:00,28.8,28.5,29.91,SE,129,0.0,0.0,99,0.00,,,0.00,WeatherDisplay:WD_co,2016-12-09 11:30:00,
2016-12-09 03:35:00,28.8,28.5,29.90,ESE,102,0.0,2.0,99,0.00,,,0.00,WeatherDisplay:WD_co,2016-12-09 11:35:00,
2016-12-09 03:40:00,28.8,28.5,29.90,East,97,0.0,0.0,99,0.00,,,0.00,WeatherDisplay:WD_co,2016-12-09 11:40:00,
2016-12-09 03:45:00,28.8,28.5,29.91,ESE,116,0.0,0.0,99,0.00,,,0.00,WeatherDisplay:WD_co,2016-12-09 11:45:00,
2016-12-09 03:50:00,28.8,28.5,29.90,ESE,123,0.0,0.0,99,0.00,,,0.00,WeatherDisplay:WD_co,2016-12-09 11:50:00,
2016-12-09 03:55:00,28.8,28.5,29.90,SE,127,0.0,0.0,99,0.00,,,0.00,WeatherDisplay:WD_co,2016-12-09 11:55:00,
2016-12-09 04:00:00,28.8,28.5,29.90,SE,135,0.0,4.0,99,0.00,,,0.00,WeatherDisplay:WD_co,2016-12-09 12:00:00,
2016-12-09 04:05:00,28.8,28.5,29.90,SE,126,0.0,0.0,99,0.00,,,0.00,WeatherDisplay:WD_co,2016-12-09 12:05:00,
2016-12-09 04:10:00,28.6,28.3,29.89,ESE,121,0.0,0.0,99,0.00,,,0.00,WeatherDisplay:WD_co,2016-12-09 12:10:00,
2016-12-09 04:15:00,28.6,28.3,29.89,ESE,119,0.0,0.0,99,0.00,,,0.00,WeatherDisplay:WD_co,2016-12-09 12:15:00,
2016-12-09 04:20:00,28.6,28.3,29.89,ESE,118,0.0,0.0,99,0.00,,,0.00,WeatherDisplay:WD_co,2016-12-09 12:20:00,
2016-12-09 04:25:00,28.6,28.3,29.89,ESE,120,0.0,0.0,99,0.00,,,0.00,WeatherDisplay:WD_co,2016-12-09 12:25:00,
2016-12-09 04:30:00,28.8,28.5,29.89,SE,133,0.0,0.0,99,0.00,,,0.00,WeatherDisplay:WD_co,2016-12-09 12:30:00,
2016-12-09 04:35:00,28.8,28.5,29.89,ESE,109,0.0,0.0,99,0.00,,,0.00,WeatherDisplay:WD_co,2016-12-09 12:35:00,
2016-12-09 04:40:00,28.8,28.5,29.89,ESE,104,0.0,0.0,99,0.00,,,0.00,WeatherDisplay:WD_co,2016-12-09 12:40:00,
2016-12-09 04:45:00,28.8,28.5,29.89,SE,130,0.0,0.0,99,0.00,,,0.00,WeatherDisplay:WD_co,2016-12-09 12:45:00,
2016-12-09 04:50:00,28.9,28.7,29.88,SE,135,0.0,0.0,99,0.00,,,0.00,WeatherDisplay:WD_co,2016-12-09 12:50:00,
2016-12-09 04:55:00,28.9,28.7,29.89,SE,135,0.0,0.0,99,0.00,,,0.00,WeatherDisplay:WD_co,2016-12-09 12:55:00,
2016-12-09 05:00:00,29.1,28.9,29.88,ESE,119,0.0,0.0,99,0.00,,,0.00,WeatherDisplay:WD_co,2016-12-09 13:00:00,
2016-12-09 05:05:00,29.1,28.9,29.88,ESE,103,0.0,0.0,99,0.00,,,0.00,WeatherDisplay:WD_co,2016-12-09 13:05:00,
2016-12-09 05:10:00,29.1,28.9,29.88,East,94,0.0,0.0,99,0.00,,,0.00,WeatherDisplay:WD_co,2016-12-09 13:10:00,
2016-12-09 05:15:00,29.1,28.9,29.88,East,99,0.0,0.0,99,0.00,,,0.00,WeatherDisplay:WD_co,2016-12-09 13:15:00,
2016-12-09 05:20:00,29.1,28.9,29.88,ESE,104,0.0,0.0,99,0.00,,,0.00,WeatherDisplay:WD_co,2016-12-09 13:20:00,
2016-12-09 05:25:00,29.3,29.1,29.89,ESE,111,0.0,0.0,99,0.00,,,0.00,WeatherDisplay:WD_co,2016-12-09 13:25:00,
2016-12-09 05:30:00,29.3,29.1,29.89,SE,124,0.0,0.0,99,0.00,,,0.00,WeatherDisplay:WD_co,2016-12-09 13:30:00,
2016-12-09 05:35:00,29.5,29.2,29.89,ESE,113,0.0,0.0,99,0.00,,,0.00,WeatherDisplay:WD_co,2016-12-09 13:35:00,
2016-12-09 05:40:00,29.5,29.2,29.89,ESE,123,0.0,0.0,99,0.00,,,0.00,WeatherDisplay:WD_co,2016-12-09 13:40:00,